{"data":{"norad_id":67544,"epoch":"2026-09-19T12:00:20.628864Z","epoch_age_seconds":158666,"freshness":"FRESH","line1":"1 67544U 26014N   26262.50023876  .00015756  00000+0  48940-3 0  9999","line2":"2 67544  97.2848 147.8595 0001802  92.8640 267.2809 15.33441950 38487","mean_motion":15.3344195,"eccentricity":0.0001802,"inclination_deg":97.2848,"raan_deg":147.8595,"arg_perigee_deg":92.864,"mean_anomaly_deg":267.2809,"bstar":0.0004894,"rev_number":3848,"period_min":93.906391435294,"perigee_km":464.31901634462,"apogee_km":466.78548195001,"semimajor_km":6843.6892491473,"source":"CELESTRAK","updated_at":"2026-09-20T09:00:43.569190Z"}}